Weather in Yezhikha

Russia / Kirov Oblast     58°04′47″N   47°42′13″E
temp.,
°C
wind,
m/s
gust,
m/s
humid.,
%
clouds,
%
prec.,
mm/h
press.,
hPa
HPBL,
m
22 april, thu
thu2200:00+2sse51394100 0.1 1017718
03:00+2sse51396100 0.8 1017762
06:00+3s51295100 0.4 1017646
09:00+5ssw41089100 0.5 1019991
12:00+9ssw5971100 0.1 10191326
15:00+10s487297 0.5 10181236
18:00+6sw289318 4.5 1020517
21:00+2s129899 4.5 102141
23 april, fri
fri2300:00+1s229720 0.0 102234
03:00+1s249524 0.0 102364
06:00+5sse3988100 0.0 1023214
09:00+7sse3882100 0.0 1024282
12:00+12sse466012 0.0 1023968
15:00+14sse355797 0.0 10221670
18:00+11se2767100 0.0 1022149
21:00+7ese35825 0.0 102284
24 april, sat
sat2400:00+5ese268923 0.0 102096
03:00+5ese31093100 0.0 1020223
06:00+6ese41288100 0.0 1018400
09:00+10ese5971100 0.0 1016931
12:00+10ese5875100 0.1 10141164
15:00+7ese4888100 0.4 10131086
18:00+6ese4893100 1.0 10111083
21:00+6ese41094100 1.6 1009972
25 april, sun
sun2500:00+6ese4993100 0.3 1006982
03:00+5ese41094100 0.4 1004689
06:00+5ese4895100 1.9 10021015
09:00+2sw4996100 3.2 1002615
12:00+4wsw6139494 0.2 10041079
15:00+8wsw61362100 0.4 10061862
18:00+7wsw496381 0.1 1007938
21:00+3sw412784 0.2 1009359
26 april, mon
mon2600:00+2sw3118413 0.0 1010300
03:00+1sw4118995 0.0 1011397
06:00+2sw410855 0.0 1012597
09:00+6sw595855 0.0 10121462
12:00+8sw694871 0.2 10121938
15:00+9sw51039100 0.2 10112530
18:00+7sw38555 0.4 1011737
21:00+3ssw267856 0.4 1011116